Theta_e
307 307 307 308 308 308 308 308 309 309 309 310 311 311 310 310 310 310 311 311 312 310 309 310 310 310 311 311 310 310 309 310 310 310 310 310 310 311 313 315 315 314 314 314 315 315 316 315 315 314 316 318 317 317 317 314 313 312 312 311 313 314 313 313 314 313 313 312 311 310 310 309 307 305 305 304 305 305 305 305 304 304 304 304 304 304 304
308 307 308 308 308 308 308 308 308 308 308 309 309 309 308 309 309 310 310 311 312 311 309 310 310 310 310 309 309 309 309 310 309 310 310 310 310 310 311 313 315 314 314 314 314 315 316 316 314 313 315 316 316 317 317 315 313 313 310 310 311 312 313 313 313 313 312 311 310 309 308 307 305 305 305 305 305 305 304 304 304 303 303 303 304 304 304
307 307 307 307 307 307 307 306 307 306 307 307 308 308 308 309 309 309 310 312 312 311 310 310 310 309 308 308 309 309 309 309 310 309 310 310 310 311 310 312 314 314 314 314 314 314 315 315 315 314 315 315 315 316 316 314 313 312 310 308 309 311 312 312 312 311 310 309 309 308 307 306 306 305 305 305 305 304 304 304 303 303 303 303 302 302 302
307 306 306 306 306 306 306 307 307 307 308 308 308 309 309 309 310 310 311 311 310 310 309 309 309 308 308 309 309 310 310 310 310 311 311 310 311 312 312 311 312 314 314 313 314 314 314 315 316 316 315 314 314 315 314 314 314 313 311 309 309 311 312 311 311 310 309 309 309 308 307 306 306 306 305 305 304 304 303 303 303 302 302 302 301 301 300
306 306 306 306 306 306 306 306 307 307 308 308 308 308 309 309 309 310 310 309 309 309 309 308 308 309 309 309 310 311 311 310 310 311 311 311 311 312 313 312 312 314 315 314 314 314 313 314 316 315 314 313 313 313 313 313 313 314 313 311 310 311 311 310 309 309 309 308 308 307 306 306 305 305 305 304 304 303 302 302 302 302 301 301 300 300 299
305 306 306 306 306 305 305 306 306 307 307 307 307 308 309 308 309 309 309 308 309 309 308 309 309 309 309 310 310 311 311 311 310 310 311 310 311 311 312 313 313 313 313 314 313 313 313 315 315 314 312 312 312 312 313 313 312 313 312 311 310 310 309 309 309 308 308 307 306 306 306 305 305 305 304 304 303 302 302 302 301 301 300 300 300 299 299
305 305 306 306 305 306 306 306 307 307 307 306 307 307 307 307 308 309 308 308 309 308 309 310 310 310 310 309 310 310 310 310 310 310 310 310 310 310 311 312 313 312 312 313 313 313 315 315 314 313 311 311 311 311 312 312 311 311 311 310 309 309 309 308 308 307 307 306 305 305 305 305 304 304 304 303 302 302 302 301 301 300 300 300 299 298 298
305 305 305 305 306 306 306 307 306 306 307 307 307 308 307 307 308 308 308 308 309 309 310 311 310 310 310 309 309 309 309 310 310 311 311 311 311 311 311 312 312 311 312 313 312 313 315 315 313 311 311 311 310 311 311 311 310 310 309 309 309 308 308 308 307 307 306 305 305 304 304 304 304 304 303 303 302 302 301 301 300 300 300 299 298 298 298
305 305 305 305 306 306 306 307 307 308 310 310 309 309 309 308 308 308 308 309 309 310 311 310 310 310 310 309 309 309 309 310 311 311 311 311 310 309 310 312 312 312 312 313 312 312 313 313 311 310 310 310 310 310 311 310 309 309 308 308 308 308 308 308 307 305 305 304 304 304 304 304 304 303 303 302 302 301 301 300 300 299 299 299 298 297 297
305 305 305 305 306 305 305 307 309 310 311 310 309 308 308 308 308 308 308 308 308 309 309 310 310 310 309 309 309 309 309 310 310 310 310 311 311 310 310 311 312 312 313 312 312 312 313 312 310 310 310 310 310 310 310 309 308 308 308 308 307 307 307 306 305 305 304 303 303 303 303 304 303 303 302 302 301 301 300 299 299 299 298 298 297 297 297
305 305 304 304 305 305 305 308 309 309 308 308 308 307 306 307 308 308 307 307 308 308 309 309 309 308 308 308 308 309 309 309 309 309 311 312 312 311 311 312 311 311 312 313 312 313 312 311 311 310 310 310 310 310 309 308 308 307 307 307 307 307 306 305 304 303 302 302 302 303 303 303 303 302 302 301 300 300 299 299 298 298 298 297 297 297 296
305 305 304 304 304 305 306 308 308 308 308 308 307 306 306 306 307 307 307 307 307 308 309 309 308 307 307 308 308 309 309 308 309 310 311 312 312 312 313 312 311 310 312 313 313 312 311 311 311 310 310 310 310 310 309 308 307 307 307 307 306 305 305 303 303 302 302 302 302 302 302 302 302 302 301 300 300 299 299 298 298 298 297 297 296 296 296
305 305 304 304 304 306 308 308 308 307 307 306 306 306 306 306 305 306 307 307 307 307 308 308 308 307 307 308 308 308 308 309 309 310 310 311 311 311 311 311 311 311 311 311 311 311 310 310 310 309 310 310 309 308 308 307 307 307 307 306 306 304 303 303 302 302 302 302 302 301 301 301 301 301 300 300 299 299 298 298 298 297 296 296 296 295 295
304 304 304 303 303 306 308 307 306 306 306 305 305 305 305 305 305 306 306 306 307 307 307 307 307 307 307 307 308 308 308 309 309 309 310 311 311 310 309 310 311 311 310 309 310 310 310 310 309 309 309 309 308 307 307 307 307 307 306 306 304 303 303 302 302 302 302 302 301 301 301 301 301 300 300 299 299 298 298 297 297 296 296 295 295 295 294
303 303 303 303 303 306 307 305 304 305 305 304 304 305 304 305 306 306 306 306 307 308 307 306 307 307 307 307 308 308 309 309 308 308 308 310 311 310 309 309 309 310 309 309 309 310 309 309 309 309 309 308 307 307 307 307 307 306 305 304 303 302 302 302 302 302 301 301 301 300 300 300 300 299 299 298 298 298 297 296 296 295 295 295 294 294 293
303 302 302 303 304 305 306 305 304 304 304 303 303 304 304 305 306 306 306 306 307 307 307 307 307 307 307 307 307 308 308 308 307 307 307 309 310 310 309 308 307 307 308 308 309 309 309 308 308 309 308 308 307 307 307 307 306 306 305 303 302 302 302 302 301 301 300 300 299 299 299 299 298 298 298 298 298 297 295 295 294 294 294 294 293 293 293
303 302 303 303 304 304 304 304 303 303 303 303 304 304 304 305 306 306 306 306 306 307 307 307 307 307 307 307 307 307 307 307 306 305 306 307 307 307 307 308 307 307 307 308 309 309 308 308 309 309 308 307 307 307 307 306 305 305 303 302 302 302 302 301 300 300 299 299 298 298 298 298 298 298 298 298 297 296 295 294 294 293 293 293 293 293 293
302 303 303 303 304 303 303 303 303 302 302 304 305 305 305 305 305 305 305 305 306 306 306 306 306 307 307 307 307 307 307 306 305 304 305 306 305 305 306 307 308 308 307 307 309 310 308 307 308 308 307 307 307 307 306 306 304 303 303 302 302 302 301 300 300 299 299 298 298 299 298 298 298 298 297 297 296 296 295 294 294 293 293 293 293 293 292
302 302 302 303 303 303 303 302 302 302 302 304 305 304 304 304 304 304 304 304 305 305 306 306 306 306 306 306 307 307 306 305 305 304 304 305 305 305 307 308 308 308 307 307 309 309 307 307 308 308 307 307 306 306 305 304 304 303 302 302 302 301 300 300 300 299 299 299 299 299 299 299 298 298 297 297 297 296 295 294 294 293 292 292 293 292 292
301 301 301 302 302 302 302 302 303 303 302 303 304 304 304 304 305 304 304 305 305 305 305 305 305 305 305 306 306 306 305 305 305 304 304 305 306 306 307 308 307 307 307 307 308 308 307 307 307 307 307 306 306 305 304 303 303 302 301 301 301 301 300 300 300 299 300 300 300 300 299 299 298 298 297 297 297 296 295 295 294 293 292 292 293 292 292
299 300 300 301 302 302 302 302 303 303 302 302 303 303 303 304 305 305 305 305 305 304 304 304 304 304 305 305 305 305 304 304 305 304 305 305 306 307 307 307 307 307 307 307 308 308 307 307 306 306 305 306 305 305 304 303 303 302 301 301 301 301 301 301 300 300 300 300 300 300 299 299 298 298 297 297 297 296 295 294 294 292 292 292 293 292 291
299 299 300 301 302 302 302 301 302 303 303 302 302 303 303 304 304 305 305 305 304 303 303 303 302 303 304 304 304 304 304 304 304 305 305 305 305 306 306 307 307 307 307 307 308 307 307 306 306 305 305 305 305 305 304 303 302 302 301 301 302 301 301 301 301 300 300 300 300 300 299 299 298 298 297 297 296 295 295 294 294 292 291 292 292 291 291
299 300 301 301 301 302 302 301 302 302 302 302 302 302 303 303 304 305 305 304 302 302 303 302 302 302 302 302 302 303 303 303 304 304 304 304 305 305 306 306 306 307 307 307 307 308 307 306 306 305 305 305 304 304 303 303 302 302 302 302 302 302 301 301 301 300 300 300 300 300 299 299 298 297 297 297 296 295 294 294 294 291 291 292 292 291 291
300 301 301 301 301 301 301 301 301 302 302 302 303 303 302 303 304 304 304 302 301 302 303 302 301 301 301 301 302 302 302 302 303 303 303 303 304 305 305 306 306 307 307 307 307 308 307 306 305 305 304 304 304 303 303 303 303 302 302 302 302 302 301 301 300 301 300 300 300 300 299 299 298 297 297 297 296 295 295 294 293 291 290 292 292 292 291
300 300 301 301 301 300 300 300 301 302 303 303 303 303 303 303 304 304 304 301 301 302 302 301 301 301 302 302 302 303 303 303 303 302 302 303 304 304 305 306 306 307 307 307 307 307 307 306 305 305 304 304 303 303 303 303 303 302 302 302 302 302 301 301 300 301 301 301 300 300 300 299 298 297 297 297 296 295 295 295 294 291 290 291 292 292 292
300 300 301 301 301 300 300 301 301 302 303 303 303 304 303 303 304 304 303 301 301 302 302 301 301 302 302 302 302 302 303 303 302 302 303 305 305 305 305 305 306 306 307 307 307 307 306 305 305 304 304 304 303 303 303 303 302 302 302 302 302 301 301 301 301 301 301 301 301 300 300 299 298 298 298 297 296 295 295 295 294 292 290 290 292 292 292
300 300 300 301 301 301 301 301 302 302 302 302 303 303 303 303 304 304 303 302 302 302 302 302 302 302 302 302 303 303 303 303 303 303 304 305 305 306 306 306 305 306 306 306 306 306 306 305 305 304 304 304 303 303 303 302 303 302 302 302 302 302 301 301 301 301 301 301 300 300 299 299 298 298 298 297 295 295 295 295 294 293 291 290 291 292 292
300 300 300 300 301 302 302 301 302 302 302 302 303 303 303 304 304 304 304 303 302 301 302 302 302 302 302 302 303 303 303 303 304 304 305 305 305 306 306 305 305 305 305 305 305 305 305 304 304 304 304 304 303 303 302 302 302 302 302 302 302 301 301 301 301 301 300 300 300 300 299 299 298 298 298 297 295 295 295 295 294 293 291 289 290 291 292
300 300 300 301 301 302 302 302 302 302 301 302 302 302 302 303 304 304 304 304 302 301 302 302 302 302 302 302 302 303 303 303 304 304 304 305 305 305 305 305 305 305 305 304 304 304 304 304 304 304 304 304 303 303 303 302 302 302 302 302 302 301 301 301 301 300 300 299 300 300 300 299 298 298 297 296 295 295 295 295 294 293 292 289 289 291 292
300 301 301 301 302 302 302 302 302 302 302 302 302 303 303 303 303 303 304 304 303 302 301 301 301 302 302 302 302 303 303 304 304 304 304 304 304 304 305 305 305 305 305 304 304 304 304 304 304 304 304 304 303 303 303 302 302 302 302 302 302 301 301 301 301 301 300 299 300 300 300 299 299 297 296 296 295 295 295 295 294 293 292 290 289 290 291
301 301 301 301 301 301 301 301 302 302 302 302 302 303 303 303 303 303 303 303 303 302 302 301 301 302 302 302 303 303 303 303 304 303 303 303 303 303 304 304 304 304 304 304 304 304 304 304 304 304 304 304 303 303 303 302 302 302 302 302 301 301 300 301 301 301 300 300 300 300 300 299 298 297 296 296 295 295 295 295 294 293 293 291 289 289 290
301 301 301 301 301 301 301 301 301 301 302 302 302 302 303 303 303 304 303 303 303 303 302 301 301 302 302 302 303 302 303 303 303 303 302 301 301 302 303 303 303 303 303 303 303 303 303 303 303 303 303 303 303 303 302 302 302 302 301 301 301 301 301 302 301 301 301 301 301 301 300 299 298 297 296 295 295 294 295 295 294 294 293 292 290 289 289
301 301 301 301 301 301 301 301 301 301 302 302 302 302 302 303 303 303 302 302 303 302 301 301 301 302 302 302 302 302 302 302 302 302 301 301 301 301 301 301 302 302 302 302 302 302 303 302 303 303 303 303 302 302 302 302 302 301 301 302 302 302 302 302 302 302 301 301 301 301 300 299 298 297 296 295 294 295 295 294 295 294 293 293 292 290 289
300 300 300 300 300 300 300 300 300 300 301 302 302 302 303 303 303 302 302 302 301 301 301 301 301 302 302 302 302 302 301 301 301 301 301 300 300 300 301 301 301 301 301 301 301 301 301 302 302 302 302 302 302 302 302 302 302 302 302 302 303 302 302 302 302 302 302 301 301 301 300 299 298 297 297 296 295 295 295 295 295 295 294 293 292 291 289
299 299 299 299 298 298 298 298 299 299 300 302 302 302 303 303 302 301 301 300 300 301 301 302 301 301 301 301 301 300 300 299 299 299 299 299 299 299 299 300 300 300 300 300 300 300 300 300 301 301 301 301 301 301 301 302 302 302 302 302 303 302 303 302 302 302 302 302 301 301 300 299 298 297 297 296 296 296 296 296 295 295 295 294 292 291 290
299 298 298 297 297 297 297 297 298 299 300 301 302 302 302 301 301 301 301 300 301 301 301 301 301 301 300 299 299 299 298 298 298 298 298 298 298 298 298 298 298 298 298 298 299 299 299 299 300 300 300 300 300 301 301 301 301 302 302 302 302 302 302 302 302 302 301 301 301 300 300 299 298 298 297 297 297 296 296 296 296 296 295 295 294 293 291
298 297 297 296 296 295 296 296 297 298 299 300 300 301 301 301 301 301 301 301 301 301 301 300 299 299 298 297 297 297 297 297 298 298 298 298 297 297 297 296 296 296 296 296 297 298 299 298 299 299 299 299 300 300 300 301 301 301 302 302 302 302 301 301 301 301 300 300 300 300 299 299 298 298 298 297 297 297 296 296 296 296 296 296 295 295 293
298 297 296 295 295 295 296 297 298 298 299 299 299 300 300 300 301 301 300 300 300 299 299 298 298 297 297 297 297 297 297 297 297 297 297 297 296 296 296 296 295 294 293 293 294 296 296 297 298 298 298 298 298 299 299 300 301 301 301 301 301 301 301 301 301 301 301 300 300 300 299 298 297 298 298 298 298 297 297 297 297 297 296 296 296 295 295
298 297 296 295 295 296 296 297 297 297 298 298 299 299 299 300 300 300 299 299 298 298 297 297 297 297 297 297 297 297 297 297 297 297 297 296 296 295 295 295 295 294 293 292 291 292 292 293 295 297 297 297 297 298 299 299 300 300 300 301 301 301 301 301 301 301 301 301 301 300 300 299 298 298 298 298 298 298 298 298 297 297 297 296 296 296 295
298 297 296 296 296 296 296 297 297 297 297 298 298 298 298 299 298 298 298 298 298 298 298 298 298 298 298 298 298 298 297 297 297 297 296 296 295 295 295 294 294 294 293 292 292 291 291 291 293 295 296 296 297 297 298 298 299 299 300 300 300 300 301 301 301 301 300 300 300 300 300 300 299 299 299 299 298 298 298 298 298 298 297 296 296 295 295
297 297 297 296 296 296 297 297 297 297 297 297 297 298 298 298 298 298 297 298 298 298 298 298 298 298 298 298 298 297 297 297 297 296 296 295 295 295 295 294 294 294 294 294 293 292 291 291 291 292 293 295 296 297 297 298 298 298 299 299 300 300 299 299 300 300 300 300 300 300 300 299 299 299 299 299 298 298 298 298 298 298 298 297 296 296 295
297 297 296 296 296 296 297 297 297 297 296 296 296 297 297 298 298 298 297 297 297 297 297 297 297 297 297 297 297 297 296 296 295 295 295 295 295 295 294 294 294 294 294 294 294 293 292 291 291 291 291 292 294 296 297 297 298 298 298 298 298 299 299 298 298 298 298 298 298 298 299 299 298 298 297 298 297 297 297 297 297 298 298 298 297 296 296
297 297 297 296 296 296 297 297 296 296 296 295 295 295 296 296 297 297 297 297 297 297 297 297 297 297 297 297 297 297 297 296 296 295 295 294 294 295 294 294 294 294 294 294 294 293 292 291 291 291 290 291 292 293 294 295 296 296 296 296 296 297 297 298 298 298 298 297 297 297 297 297 297 297 296 297 297 297 297 297 297 297 297 297 297 297 296
297 297 296 296 296 296 296 296 296 296 295 295 295 295 295 295 295 296 296 296 296 296 296 296 296 296 296 296 296 296 296 296 296 296 295 294 294 294 294 294 294 294 294 294 293 293 292 291 291 291 290 290 291 291 291 292 292 292 292 293 294 295 296 296 297 298 298 297 297 297 297 297 297 297 297 297 297 297 297 297 297 297 297 297 297 297 296
296 296 296 296 296 296 295 295 295 295 295 295 295 295 295 295 295 295 295 295 295 295 295 295 295 295 295 295 295 296 295 295 295 295 294 294 294 294 293 293 292 293 293 293 293 292 291 291 291 290 290 290 290 290 290 290 290 290 291 291 292 293 294 295 295 296 297 297 297 297 297 297 297 297 297 297 297 297 297 297 297 297 297 297 296 296 296
296 296 296 295 295 295 295 295 294 294 294 294 294 294 294 295 295 295 295 295 295 295 295 295 295 295 294 294 294 294 295 294 294 294 293 293 293 293 292 291 291 291 292 292 292 292 291 290 290 290 290 290 290 290 290 290 290 290 290 291 291 292 293 294 295 295 295 295 296 296 297 297 297 297 297 298 298 298 298 297 297 297 297 297 297 296 296
295 295 295 295 295 294 294 294 294 294 294 294 293 293 293 293 293 294 294 294 294 294 294 293 293 293 293 293 294 294 294 294 293 293 292 292 292 292 292 291 290 290 290 291 291 291 290 290 290 290 290 290 290 290 290 290 289 290 290 291 291 291 292 293 293 294 294 294 294 295 295 296 297 297 297 297 298 297 298 298 298 297 297 296 296 296 296
295 295 295 294 294 294 294 294 294 294 293 293 293 293 293 293 293 293 293 293 293 292 292 292 292 292 292 292 292 292 292 292 292 291 291 290 290 290 290 290 289 289 289 289 289 290 290 289 289 289 289 289 289 289 289 289 289 290 290 291 291 291 291 291 292 292 293 293 293 293 294 295 296 296 297 297 297 297 297 297 298 298 297 297 297 296 296
295 295 294 294 294 294 294 294 294 293 293 293 293 293 292 292 292 292 292 292 292 292 292 292 291 291 291 291 291 290 290 290 290 290 290 289 289 288 288 288 289 288 288 288 288 289 289 289 289 289 289 289 289 288 288 289 289 290 290 291 291 292 291 291 291 292 292 292 293 293 293 294 295 296 296 296 296 297 297 297 297 297 297 297 297 297 297
295 294 294 294 294 294 293 293 293 293 293 293 292 292 292 291 291 290 290 291 291 291 291 291 290 290 290 290 290 290 289 289 288 288 288 288 288 288 287 287 288 288 288 287 287 288 288 289 289 289 288 288 288 288 288 288 288 288 289 290 291 291 291 291 291 291 291 291 292 293 293 294 294 295 296 296 296 296 296 296 296 296 297 297 297 297 297
294 294 294 294 293 293 293 293 292 292 292 291 291 291 291 291 290 289 289 289 289 289 289 289 290 289 289 288 288 289 288 288 288 287 287 287 287 287 287 287 287 287 287 287 287 287 288 288 289 288 287 287 287 287 287 287 287 287 287 288 288 289 289 290 290 290 290 291 292 293 293 293 294 295 295 295 295 296 296 296 296 296 296 297 297 297 297
294 294 294 293 293 292 292 292 292 291 291 290 290 290 290 290 290 289 288 288 288 288 287 288 289 289 288 287 287 288 287 287 287 287 287 286 286 286 286 286 286 286 286 286 286 286 286 287 287 287 286 286 285 286 286 286 286 286 286 286 286 287 288 289 289 289 289 290 291 292 292 292 293 293 294 294 295 295 295 295 295 295 296 296 296 296 296
Wind_Speed
19 18 18 18 15 15 16 17 19 19 18 16 13 12 14 13 10 12 14 15 14 14 19 21 19 16 15 17 20 23 24 25 24 24 25 26 26 27 25 25 28 30 30 25 22 25 25 26 25 24 23 23 22 24 23 21 21 21 20 20 20 20 21 21 20 19 17 16 16 16 17 18 18 18 18 18 18 19 20 21 22 22 22 22 22 23 24
18 18 16 16 16 15 17 19 22 21 19 16 15 15 17 16 15 16 17 18 16 15 18 20 21 22 22 23 24 25 25 25 25 25 25 25 26 29 30 27 27 29 30 29 26 27 28 25 27 25 21 21 22 23 23 21 21 21 20 19 20 20 20 20 20 19 17 16 17 17 17 17 17 17 17 18 19 20 21 21 21 21 21 21 22 24 25
15 16 15 16 16 15 17 21 23 21 18 16 15 15 13 13 15 16 16 15 14 14 16 18 23 26 25 22 23 24 24 24 24 25 25 25 25 28 31 28 27 29 30 30 29 29 31 33 28 26 22 20 22 22 21 21 21 21 19 18 19 19 19 19 19 18 17 16 16 16 16 15 15 16 16 18 19 19 20 20 21 20 21 22 24 25 25
12 12 13 16 15 15 19 22 19 15 14 14 13 12 11 11 12 13 12 12 11 12 14 17 21 23 22 20 22 22 21 21 23 25 26 26 25 26 30 30 27 28 31 32 30 30 32 35 29 25 24 21 22 21 21 21 20 19 18 17 17 18 18 17 16 15 15 14 14 13 13 13 15 16 17 18 19 19 20 20 20 21 22 25 26 26 26
11 11 12 14 12 12 14 12 8 9 12 14 14 14 14 14 12 10 10 10 10 12 14 15 17 18 18 19 19 20 20 22 24 25 27 30 29 27 31 33 32 31 30 33 34 32 31 31 27 24 24 22 22 21 20 20 19 19 18 16 16 17 17 15 15 14 13 12 12 11 12 14 15 16 18 19 19 20 20 20 21 22 24 26 26 26 26
11 11 11 11 10 12 9 4 3 9 12 14 15 14 14 16 14 11 11 11 12 14 15 16 17 16 17 19 20 21 23 24 24 26 28 31 32 30 30 32 36 38 32 29 32 27 25 28 27 25 23 22 21 20 20 19 18 18 18 16 16 16 16 15 13 12 11 11 11 11 13 14 15 17 19 19 20 20 19 20 22 25 28 30 29 27 26
10 9 8 10 12 12 9 7 8 12 13 15 17 16 17 18 16 13 13 13 14 15 15 15 15 15 17 20 22 23 25 24 25 26 28 29 30 31 31 31 37 40 33 26 29 24 21 26 27 24 22 21 20 19 19 18 17 17 17 16 16 15 14 13 12 11 10 9 10 11 13 14 16 18 18 19 19 19 19 21 24 28 31 32 31 29 28
9 9 9 10 12 12 14 14 13 13 12 13 14 14 15 14 13 13 13 13 13 11 9 11 13 15 18 21 21 22 23 23 21 22 23 25 28 30 31 32 36 36 31 27 29 26 22 24 26 23 22 20 19 19 19 17 17 17 17 15 14 14 13 12 10 9 8 8 10 12 13 15 16 16 17 17 18 19 20 23 27 30 32 31 30 31 30
9 10 10 10 12 14 14 12 8 6 4 5 5 6 9 11 11 12 11 9 8 9 10 11 12 14 16 16 16 18 18 17 18 21 24 27 30 33 33 31 32 32 30 28 27 25 23 26 26 23 19 19 18 18 18 17 17 17 15 13 12 11 11 10 9 7 7 8 10 12 13 14 15 15 16 17 18 18 21 24 27 28 29 31 31 31 30
8 10 11 10 11 12 10 5 6 11 11 9 5 4 7 8 7 8 8 9 10 10 12 13 14 13 11 9 11 14 15 16 21 26 28 28 30 34 34 33 31 27 24 24 26 26 27 27 25 21 19 19 19 18 17 17 17 15 14 13 11 9 9 8 7 6 6 8 10 12 12 13 14 15 16 17 18 20 23 26 28 28 29 31 31 29 28
9 10 12 10 9 10 8 4 8 12 11 7 3 5 5 3 7 9 7 7 9 10 11 13 13 10 8 8 10 15 20 23 26 27 28 29 31 32 32 33 32 27 22 21 28 30 27 24 21 19 20 19 18 18 18 17 15 14 13 12 10 8 7 6 5 6 8 9 10 10 11 12 13 15 17 18 19 20 22 26 28 30 31 33 31 29 29
11 11 11 9 8 8 6 4 8 9 8 5 2 7 3 6 9 9 8 8 9 10 13 15 11 8 9 11 16 21 25 27 27 27 28 31 31 27 23 23 25 23 18 14 23 26 23 22 21 18 18 19 19 18 18 16 15 14 13 10 9 7 6 4 5 7 7 7 8 9 10 11 14 16 17 17 18 21 23 26 28 30 30 31 31 29 29
12 12 10 9 8 5 1 5 6 7 6 2 5 7 3 6 11 12 10 12 13 11 12 12 9 12 19 21 24 27 28 26 25 26 29 29 26 18 10 7 9 13 11 10 14 17 18 20 20 17 17 19 19 18 17 16 14 13 11 9 7 5 3 5 5 5 5 6 8 10 11 13 14 15 15 16 19 22 25 27 30 30 29 29 29 29 29
10 9 9 9 7 1 4 2 2 4 2 4 6 7 9 11 13 11 9 12 13 10 11 12 13 18 24 25 26 27 26 24 25 27 27 24 19 13 7 4 6 11 13 12 12 14 16 16 16 17 19 19 18 18 17 15 14 12 11 8 5 4 4 5 5 5 6 7 9 11 12 12 13 14 16 16 18 21 25 29 30 29 28 27 28 30 30
8 8 8 9 6 1 5 1 1 3 3 8 9 11 14 13 12 12 12 14 12 10 12 15 17 21 22 23 25 25 23 23 25 27 25 20 16 11 6 6 8 8 9 10 10 11 12 12 12 16 19 19 19 18 17 15 14 12 10 7 4 3 5 4 3 3 5 7 9 10 11 12 14 15 16 16 18 23 26 27 26 25 26 27 29 31 31
6 7 7 6 6 2 4 5 5 5 10 16 17 16 16 14 12 12 13 13 12 11 12 14 18 20 21 22 23 22 21 22 24 23 20 16 13 11 11 9 6 4 4 8 8 7 7 9 12 15 18 19 19 18 16 15 13 11 9 7 5 5 4 2 1 4 5 6 8 9 10 13 14 14 15 17 20 22 23 22 24 26 29 31 33 33 33
6 7 9 10 13 14 12 12 14 16 18 19 19 18 15 12 11 12 12 13 13 13 13 15 18 19 20 21 21 20 20 20 18 14 10 8 7 8 11 9 6 5 7 8 8 7 6 9 12 15 18 19 19 18 16 15 13 11 8 6 5 4 1 1 2 4 5 5 7 8 10 12 13 13 14 18 20 21 23 25 28 32 33 35 36 36 36
9 11 14 15 18 20 18 16 17 20 19 14 13 13 12 10 10 12 13 15 16 14 14 16 17 18 20 20 18 17 18 14 9 7 4 3 3 4 6 8 9 9 8 7 6 7 7 9 13 15 17 18 18 17 16 15 14 11 8 7 5 3 2 2 3 5 5 6 8 10 11 12 13 13 15 18 19 22 25 28 30 32 35 37 37 38 38
9 8 11 14 17 19 20 19 19 19 17 11 10 11 12 13 13 13 14 14 14 13 14 15 17 19 20 19 16 15 13 8 5 7 6 4 5 7 9 10 7 7 5 4 5 7 6 9 13 15 17 18 17 15 14 14 12 10 7 6 5 3 3 3 4 5 6 7 9 10 11 13 14 14 15 17 20 24 27 28 30 33 37 38 38 38 38
9 10 15 19 23 24 23 22 18 12 12 12 10 10 11 13 14 14 12 10 9 10 13 15 17 19 19 17 13 11 8 5 4 8 10 9 8 9 9 7 5 6 7 5 6 8 7 9 13 17 18 18 18 16 13 12 12 10 8 7 6 4 3 3 2 6 8 7 8 10 12 14 15 15 17 19 23 25 26 27 29 33 38 40 38 35 35
11 13 16 18 19 19 18 17 14 10 9 11 13 13 13 13 12 11 9 8 8 11 14 15 16 16 15 11 7 5 6 7 8 10 11 9 8 7 6 6 6 7 8 8 9 10 10 11 14 16 16 17 20 18 13 12 12 10 6 7 8 5 3 3 2 8 10 7 8 11 13 14 15 16 18 21 23 24 25 26 29 33 38 40 35 32 33
9 10 12 11 10 11 14 16 16 12 10 10 13 16 18 14 9 7 7 7 9 12 13 12 11 9 7 5 3 4 8 8 7 8 8 8 8 7 6 7 6 5 7 8 9 12 13 13 15 14 13 17 19 17 13 13 12 9 5 5 7 4 2 2 5 10 11 9 11 13 13 14 16 17 18 20 22 23 24 25 27 32 38 38 33 31 31
10 16 18 15 11 12 17 20 19 15 13 12 12 15 17 14 9 5 5 8 12 14 11 7 6 4 2 1 2 5 7 5 4 6 7 7 8 8 7 7 7 6 6 6 9 13 12 12 15 15 13 15 16 15 14 12 10 8 5 4 4 3 3 4 7 10 10 11 13 14 13 14 16 17 17 19 21 23 22 23 27 33 38 38 34 32 31
14 22 23 18 16 17 21 25 25 20 15 13 12 12 15 15 11 7 6 9 14 13 7 3 2 2 2 2 4 6 5 4 5 8 7 6 7 8 7 8 7 6 5 4 8 13 13 13 17 17 14 15 16 15 13 11 8 7 6 2 3 4 3 6 8 8 9 11 13 14 14 14 16 18 17 18 21 22 21 22 28 34 40 40 37 35 32
16 21 21 18 19 20 22 26 28 21 12 10 10 11 13 13 9 7 7 11 14 9 2 5 3 2 3 4 5 5 5 5 6 7 7 7 7 8 8 8 6 5 6 5 8 13 14 15 16 16 14 14 15 13 10 9 8 6 4 3 4 3 3 8 10 8 8 10 14 15 13 13 17 19 17 18 22 21 19 23 29 34 39 41 39 37 35
22 23 21 19 20 19 19 21 22 17 12 11 11 12 14 12 6 7 7 10 10 3 5 6 2 2 4 5 5 4 5 5 6 7 8 8 7 6 7 7 4 4 6 6 9 12 14 15 16 15 12 12 11 9 9 9 8 5 3 2 1 2 7 11 10 8 9 12 15 15 13 14 19 20 17 19 23 21 19 24 30 34 38 41 40 39 37
20 19 19 18 17 16 17 19 21 19 17 16 14 12 13 10 6 8 6 6 4 1 6 4 1 3 3 5 6 5 5 5 6 5 3 1 0 1 2 3 2 5 7 9 11 13 13 15 16 14 12 11 10 9 9 8 6 4 2 0 2 5 10 11 8 7 11 14 14 14 15 17 20 18 15 18 23 22 19 24 30 34 38 41 42 41 39
17 17 17 16 16 17 18 20 21 21 20 19 16 11 9 7 9 9 5 4 2 2 5 7 4 2 3 5 6 6 4 3 2 1 3 4 4 4 5 7 8 10 12 13 13 13 14 14 14 13 12 11 9 8 7 5 4 3 2 2 3 6 10 10 6 8 14 14 13 16 18 18 18 17 15 18 22 21 19 23 30 33 35 39 43 42 40
16 17 16 16 17 19 19 19 20 20 20 19 15 10 8 9 10 7 6 7 5 6 5 7 6 2 4 5 4 3 2 4 5 7 9 9 7 7 10 14 14 13 16 16 14 12 12 12 12 12 11 9 7 6 5 4 3 1 3 3 3 5 8 8 9 14 17 15 15 18 18 16 15 16 16 17 21 20 18 22 29 32 32 36 42 44 43
14 15 16 17 17 17 16 16 17 17 16 14 13 10 8 9 10 5 5 8 5 5 1 7 6 2 4 4 3 3 6 10 12 12 13 12 9 9 13 16 17 16 17 17 14 12 11 10 11 12 11 8 6 5 3 4 4 3 4 5 6 6 8 10 14 16 16 15 16 17 17 15 14 15 16 18 20 19 18 21 27 31 31 33 38 42 42
12 11 11 12 11 11 12 13 14 15 14 13 12 10 7 7 7 4 4 6 5 3 4 8 5 2 2 1 0 4 9 14 16 16 16 14 13 13 15 17 18 17 17 16 14 13 11 9 9 10 8 6 6 5 4 5 6 6 6 8 11 11 12 14 15 14 16 17 14 13 15 15 13 14 17 19 19 18 19 21 25 28 30 31 34 37 40
7 6 7 10 10 11 11 10 9 11 12 9 8 7 7 7 5 3 2 4 6 7 10 10 7 4 3 4 4 8 14 18 19 20 21 21 20 18 17 17 18 17 16 14 13 12 11 10 9 6 4 4 5 5 5 6 7 8 9 11 14 14 15 16 13 12 15 15 12 12 14 13 12 14 16 16 17 17 18 21 24 25 27 30 31 33 36
5 6 8 12 13 12 11 10 10 10 10 10 9 9 7 5 3 2 3 4 6 8 10 9 6 4 5 8 10 14 18 20 22 23 25 25 25 23 22 20 20 18 17 15 14 12 11 12 13 11 7 3 1 1 3 5 6 8 8 9 11 12 13 13 12 13 14 13 13 15 15 11 11 15 14 13 16 18 17 20 23 24 25 29 30 29 32
9 9 10 11 11 11 10 10 10 10 10 11 10 7 3 1 1 2 3 7 10 11 8 6 6 7 9 13 16 18 19 22 24 25 25 25 25 25 25 24 23 23 22 20 19 18 15 14 14 13 10 7 5 4 3 3 4 4 4 5 7 9 11 10 10 12 12 11 14 17 13 9 11 12 10 9 16 19 17 17 21 23 25 28 29 29 29
11 11 10 10 10 9 8 8 9 10 11 10 7 3 6 8 8 9 11 13 13 10 6 6 10 13 14 16 19 20 21 23 25 25 24 24 24 25 25 25 24 24 24 24 23 22 19 16 15 15 14 12 10 8 7 6 4 4 4 5 6 8 10 10 9 10 10 11 14 13 11 12 12 11 10 11 15 17 16 15 17 22 25 27 28 29 29
12 12 11 11 11 10 9 8 7 9 11 11 11 14 15 15 14 14 14 13 10 8 8 12 17 18 19 21 23 23 24 24 25 25 25 25 25 25 25 25 25 25 25 24 22 20 19 17 16 15 15 14 12 9 9 9 8 8 9 9 8 8 9 9 9 10 10 10 9 9 12 14 14 12 13 14 14 14 14 13 15 21 24 24 27 30 30
14 13 13 12 12 11 10 8 8 12 17 20 21 22 21 19 17 16 15 12 10 10 15 21 25 24 24 25 26 26 25 25 25 25 24 24 25 26 27 27 26 25 25 23 18 15 14 14 14 13 13 12 11 10 9 9 10 11 11 10 9 10 10 10 10 12 12 12 12 12 13 13 12 12 14 15 15 13 12 11 15 20 23 22 25 30 31
14 15 15 14 13 13 14 15 17 20 24 25 26 26 25 23 22 22 22 21 21 23 26 28 27 26 26 26 26 26 26 25 24 25 25 25 27 28 28 28 27 26 25 22 17 12 11 9 9 11 12 12 12 12 11 10 11 12 12 11 11 11 12 11 11 11 11 13 13 11 9 11 13 13 14 15 16 16 13 12 14 18 20 21 24 27 29
13 16 17 18 19 21 23 24 25 27 29 30 30 30 28 27 27 28 27 25 24 23 23 23 22 22 23 24 24 24 24 23 23 23 23 23 25 27 27 27 25 24 24 22 19 17 15 12 10 12 13 14 14 14 13 13 13 13 12 12 13 12 12 13 13 12 11 12 12 10 8 10 12 12 12 14 16 17 17 17 17 17 18 19 22 25 28
12 14 17 20 22 24 25 26 28 29 30 30 31 30 29 28 29 29 28 25 21 18 19 20 22 24 24 25 24 24 23 22 21 20 20 21 24 25 25 24 22 22 22 23 21 20 18 15 13 12 12 13 14 15 15 16 17 15 13 13 14 13 12 12 12 11 11 12 13 11 9 9 10 10 11 13 14 15 17 19 21 20 20 19 20 22 26
14 14 15 18 20 22 22 23 23 25 26 27 28 27 26 26 27 29 30 30 28 27 26 26 26 25 24 24 24 23 22 20 19 17 18 19 21 22 23 22 21 20 21 21 21 20 19 17 15 13 11 11 12 14 16 16 16 15 14 14 14 14 14 13 11 9 9 10 11 9 6 6 8 10 10 12 13 13 14 16 19 21 23 22 20 20 22
16 16 17 18 19 20 20 19 19 20 22 23 24 23 23 23 24 26 27 27 28 29 28 27 25 23 21 21 20 19 18 17 16 16 18 19 19 20 20 19 18 18 19 20 20 20 19 17 16 15 13 11 10 12 14 15 14 14 14 13 12 12 13 14 13 12 10 10 10 9 6 5 7 9 9 9 10 13 15 16 16 17 20 21 20 20 21
18 18 18 20 22 22 21 19 18 18 19 20 21 21 21 21 22 22 23 25 26 26 26 25 24 22 21 20 18 18 16 15 14 14 15 16 16 16 17 17 16 16 17 18 19 20 19 17 15 15 14 12 10 9 10 11 11 11 11 11 10 10 11 12 13 14 13 12 12 11 8 7 8 8 8 9 10 12 15 16 15 14 14 15 15 15 17
19 19 19 19 21 23 23 23 22 21 19 18 17 17 17 18 19 20 21 21 21 21 21 21 21 21 19 18 17 16 14 13 12 11 10 11 12 13 14 15 15 15 17 18 19 19 18 16 14 13 12 11 11 9 9 10 9 9 10 10 10 10 11 11 12 13 14 14 14 13 12 11 10 9 9 10 12 13 14 14 13 13 13 12 11 11 12
19 19 19 19 19 19 21 22 24 23 22 20 17 15 14 13 13 13 14 14 15 16 17 17 17 17 16 15 14 13 12 12 12 10 9 8 9 10 12 14 15 15 16 17 18 18 17 16 14 12 10 10 10 9 10 10 9 9 9 9 9 9 10 11 11 12 12 13 13 13 13 13 12 12 12 12 12 13 13 13 12 11 12 12 12 11 11
18 17 18 18 19 18 18 18 19 19 20 20 19 18 16 14 12 10 9 8 8 10 11 12 12 13 12 12 11 11 11 12 11 11 11 12 12 11 12 13 14 15 16 16 16 16 15 15 14 12 10 10 9 9 9 9 9 8 8 8 8 8 9 9 10 10 11 11 12 12 13 13 12 13 13 12 12 12 13 12 11 11 10 11 12 12 10
16 16 16 17 17 17 16 16 16 16 16 16 16 16 15 15 15 14 12 10 9 10 10 10 10 10 9 8 7 8 9 10 10 9 10 10 11 13 14 13 14 15 16 17 16 15 14 14 13 12 11 10 9 9 8 8 8 7 7 7 7 7 8 8 9 9 9 10 10 11 11 12 12 12 12 13 12 12 13 13 13 12 12 11 11 12 12
14 14 14 14 15 15 14 14 14 14 14 14 14 13 13 12 12 12 12 11 11 11 10 9 9 9 9 9 8 6 5 6 7 7 7 6 8 11 14 14 12 12 13 14 16 15 13 12 12 12 12 10 9 8 8 7 7 6 6 6 6 6 6 6 7 8 9 9 9 10 10 11 11 12 12 12 13 13 13 12 12 13 13 13 13 12 12
13 13 12 12 12 13 12 12 12 12 12 12 11 11 11 11 10 10 10 9 8 8 9 9 9 9 9 9 9 9 7 6 6 6 6 8 10 11 12 13 13 12 9 9 12 15 15 13 11 11 11 10 9 8 7 7 6 5 5 5 6 6 7 7 7 8 8 9 9 9 10 10 11 11 11 12 12 12 12 12 12 12 12 13 13 13 12
11 12 12 11 12 12 11 11 11 11 11 11 10 9 8 8 8 8 9 8 7 7 7 7 7 7 7 8 8 8 8 8 8 7 6 7 10 11 11 11 13 13 11 9 9 12 14 13 12 11 11 10 9 8 7 6 6 6 5 4 4 5 7 7 7 8 8 8 8 8 9 9 10 10 10 10 10 10 11 11 12 11 11 11 11 12 12
10 10 10 10 11 11 11 11 11 10 9 9 8 8 8 8 7 7 7 7 8 8 7 6 5 5 5 6 7 6 6 7 8 8 8 7 8 9 11 11 12 13 12 10 9 11 13 13 12 11 10 10 10 10 9 8 8 7 7 6 6 5 6 7 8 8 7 7 7 7 7 7 8 8 9 9 9 9 10 11 11 11 11 11 11 12 12
9 9 9 9 9 9 9 9 8 8 8 8 7 6 6 7 7 7 5 5 5 6 6 6 6 5 4 4 4 5 6 7 9 9 9 8 7 6 7 8 9 10 10 9 8 11 13 13 12 11 9 10 10 11 10 10 10 9 8 9 8 7 6 6 8 8 7 7 7 8 7 7 7 7 7 8 9 9 10 11 12 12 12 12 12 11 11
Wind_Direction
266 271 276 280 283 280 278 277 275 275 274 274 276 278 280 282 275 272 279 280 276 277 279 280 284 293 299 299 298 295 291 287 284 282 281 279 275 270 263 255 251 250 251 256 268 272 251 221 222 226 204 193 200 201 203 210 209 208 209 208 205 204 206 209 214 218 222 227 233 239 245 254 265 274 282 288 288 284 283 283 284 285 286 287 286 284 282
269 271 275 281 283 282 281 277 272 271 273 278 281 277 274 273 269 269 276 279 276 272 272 277 288 294 294 293 290 287 284 282 282 280 278 278 277 274 268 256 248 250 248 239 242 263 270 252 232 223 204 193 197 196 196 201 202 203 207 206 203 204 205 206 211 214 218 226 232 240 252 263 274 282 286 288 286 285 285 286 287 288 287 285 282 279 279
273 273 278 279 276 276 275 270 267 270 278 280 277 272 270 268 267 268 273 275 275 273 275 283 290 291 291 290 286 284 284 284 284 283 281 277 275 277 276 266 253 252 249 241 235 242 264 271 248 217 201 196 193 191 191 192 193 199 204 206 206 205 202 204 211 217 221 228 236 248 261 271 278 281 282 282 283 283 285 286 287 287 285 283 281 280 281
271 273 277 274 275 277 270 265 265 269 270 268 264 265 264 262 264 269 270 268 268 277 286 289 288 288 288 289 292 297 301 306 307 304 299 293 289 290 289 282 271 261 249 242 237 231 246 267 257 215 199 197 191 188 188 186 186 191 198 205 205 200 198 202 208 214 219 225 235 249 260 265 270 274 275 276 278 281 283 284 284 284 282 282 282 283 284
272 275 278 283 291 284 269 268 270 259 256 258 258 257 255 254 256 259 261 264 271 282 287 286 287 290 291 296 309 317 317 315 313 313 313 307 301 299 300 297 290 283 264 243 235 229 233 251 248 217 200 195 191 189 187 185 182 184 190 196 194 192 194 199 203 209 216 225 235 246 256 262 268 272 271 273 279 283 283 283 285 284 283 283 284 286 288
275 280 284 289 281 263 264 294 295 268 269 269 265 261 257 253 251 253 260 267 276 282 284 284 287 293 302 310 317 317 313 309 304 303 303 301 296 292 295 297 294 294 285 252 232 226 222 226 226 215 200 192 191 189 184 183 182 181 184 185 185 189 194 195 201 210 215 225 237 248 259 266 269 270 270 276 284 285 283 286 287 284 283 286 287 288 291
273 280 277 266 253 254 278 300 282 277 281 279 276 277 273 268 270 278 282 280 279 278 284 298 307 314 318 315 309 309 310 307 302 299 297 295 294 292 291 290 287 291 292 265 235 218 203 202 208 207 197 189 187 186 182 182 182 181 181 180 181 188 192 193 201 210 217 232 247 257 265 269 270 271 274 282 286 286 286 289 289 286 288 291 290 290 292
265 268 259 252 259 277 288 286 283 283 280 281 285 284 279 282 288 290 288 286 288 296 316 332 334 330 321 310 302 303 306 304 304 309 310 308 305 300 297 292 287 289 290 268 236 213 196 196 199 198 193 187 183 181 180 180 182 181 180 181 184 188 191 194 201 211 225 242 254 262 267 270 272 274 279 284 288 288 288 288 289 291 293 294 292 292 292
250 259 258 260 275 282 280 281 298 321 329 334 334 301 286 293 298 297 298 305 321 334 340 338 334 328 319 307 299 298 299 308 321 322 316 311 305 300 296 291 288 287 281 261 236 215 198 192 188 184 183 184 181 178 179 179 179 179 180 183 186 188 193 198 207 221 239 253 263 269 272 273 274 277 282 286 289 291 291 291 293 295 297 297 295 294 292
248 257 263 267 271 270 273 305 28 48 44 27 7 318 293 299 327 351 354 344 335 331 329 330 329 324 313 294 292 301 305 317 324 317 309 306 303 301 297 287 281 281 271 247 223 204 188 178 175 177 182 184 180 178 179 177 176 179 182 183 183 189 197 200 204 224 246 258 266 270 272 275 279 282 285 288 290 291 293 293 293 296 299 300 297 293 290
246 251 258 260 258 265 286 357 62 68 59 40 343 289 290 341 30 31 19 341 320 316 315 313 310 305 293 279 294 312 317 318 316 310 306 303 300 301 298 286 277 277 268 229 196 182 172 165 169 180 184 180 176 177 177 176 177 180 178 179 184 188 188 191 212 246 259 267 271 272 277 281 283 285 289 292 294 293 293 293 295 298 299 298 295 293 290
247 250 255 257 260 274 305 44 93 102 92 74 303 268 283 32 10 348 340 322 312 317 315 309 303 294 289 295 309 315 314 311 309 308 306 302 298 300 302 286 269 263 259 214 171 160 158 161 168 176 178 176 174 175 175 175 178 177 174 179 184 175 176 215 262 274 275 277 278 281 286 287 287 291 295 299 300 297 295 296 299 302 301 298 295 294 294
257 256 258 259 261 269 29 82 108 114 100 86 259 263 308 351 322 322 342 331 318 325 323 311 299 293 296 303 308 309 309 310 311 311 311 303 293 288 298 287 230 202 189 166 152 157 167 172 173 174 174 173 171 171 174 175 173 171 170 176 180 179 217 267 275 272 269 273 283 293 298 297 297 302 303 304 303 300 299 300 301 302 303 300 297 297 297
263 265 266 268 271 244 93 85 180 144 151 259 272 299 318 311 305 319 335 314 303 307 308 299 289 289 296 302 305 306 311 314 313 311 312 307 293 279 280 277 214 182 174 175 169 166 170 172 174 174 172 170 169 170 172 171 167 167 167 165 168 198 247 260 257 262 279 300 311 315 316 312 308 307 308 307 301 296 299 303 303 304 305 303 301 301 301
269 274 267 269 281 135 130 221 273 149 221 284 301 309 305 300 304 310 304 297 301 307 306 301 295 294 299 304 306 311 316 317 314 309 304 302 296 286 269 237 216 190 184 188 174 162 164 163 166 173 172 169 169 168 167 165 162 161 159 152 155 204 232 238 256 297 321 332 330 324 320 313 309 308 308 303 297 298 303 308 310 310 311 310 307 305 304
277 271 259 279 326 344 194 243 273 251 264 284 293 293 292 295 299 297 295 298 306 310 306 302 298 299 305 307 308 314 317 315 314 309 298 294 288 263 240 233 218 183 201 207 188 179 183 169 167 174 172 167 166 164 162 164 164 161 160 162 180 209 225 235 325 350 347 338 330 324 318 313 312 312 307 300 301 306 312 319 322 320 318 316 313 309 305
287 281 278 295 311 305 289 290 297 293 292 299 304 301 297 305 313 311 306 303 303 305 306 305 303 302 306 308 310 316 317 314 316 315 301 298 295 243 222 237 248 236 246 233 195 173 174 171 172 175 171 167 164 161 160 160 155 155 165 178 186 191 177 55 21 7 359 344 337 336 333 330 328 320 309 305 308 313 316 321 327 327 324 321 317 312 308
297 291 284 286 289 290 294 300 301 299 300 316 336 329 315 317 319 308 303 308 312 313 311 309 308 306 308 310 311 314 315 313 327 352 344 288 288 225 218 258 262 239 245 244 194 169 166 172 175 172 168 166 162 160 165 162 149 145 162 178 179 163 113 71 45 25 2 347 355 357 350 343 335 321 311 309 311 316 320 323 326 328 328 325 321 315 311
297 289 282 288 289 289 291 286 284 293 306 329 359 349 325 313 301 288 293 306 312 313 312 311 309 305 304 305 305 306 307 297 311 347 345 307 283 258 253 270 261 224 235 251 198 178 174 178 176 169 167 166 160 154 153 150 145 149 163 173 165 134 110 96 58 31 3 353 2 1 347 340 336 327 317 312 313 319 324 325 326 330 331 328 324 319 314
281 278 282 289 291 289 286 281 281 302 323 327 333 333 316 301 291 291 303 307 298 300 307 306 304 301 298 296 296 297 296 281 300 327 325 308 293 274 263 271 261 230 234 232 199 187 185 178 173 171 171 168 161 154 141 132 143 160 167 164 155 130 114 137 88 29 16 6 357 350 342 341 340 332 322 316 317 322 326 326 327 331 333 330 328 324 319
277 277 283 290 295 294 290 288 292 305 319 320 323 319 300 280 274 287 302 301 293 300 303 301 299 298 293 286 283 297 312 306 303 311 310 300 295 287 266 266 271 249 231 217 198 184 177 169 170 177 177 163 157 161 156 143 153 170 172 156 149 130 107 134 74 23 20 11 350 344 343 342 340 334 328 326 326 327 329 328 327 331 335 335 333 329 323
284 285 286 290 294 292 293 294 291 289 304 324 323 308 294 282 278 289 295 297 303 306 305 300 291 284 281 270 257 316 337 327 303 297 295 288 293 296 273 258 260 246 234 225 192 165 159 164 171 179 172 154 151 157 157 153 163 175 173 163 160 144 96 51 17 15 16 8 353 347 343 342 343 338 333 331 330 330 330 328 326 333 340 341 339 335 327
283 293 301 305 298 288 293 297 292 284 291 303 301 297 296 298 303 305 296 307 316 316 310 293 264 245 239 289 313 331 347 359 350 329 312 296 302 313 299 270 251 234 237 228 179 157 156 165 170 171 164 154 153 155 155 159 170 174 173 179 167 128 75 14 7 10 6 359 354 349 343 341 342 341 337 334 331 331 331 326 326 337 346 349 347 343 335
276 289 300 308 304 297 297 297 293 290 292 294 290 293 298 299 295 284 287 312 321 320 307 253 202 138 95 51 10 360 6 11 349 336 330 319 313 313 302 281 259 226 216 211 173 159 158 162 165 169 168 158 151 153 159 166 170 172 176 167 108 104 68 10 7 4 355 354 355 350 341 337 339 340 340 336 333 333 332 326 328 340 350 353 353 350 344
281 288 294 295 294 297 299 292 287 287 295 302 297 292 294 294 281 259 278 315 327 322 252 179 162 87 56 36 21 18 17 10 344 326 324 322 311 299 292 290 276 222 201 198 171 159 158 159 163 170 173 158 145 148 163 169 168 170 169 135 111 103 21 8 12 11 0 356 353 344 332 330 340 344 341 339 340 338 329 323 330 341 351 355 356 354 351
284 289 296 296 291 295 298 291 285 286 293 303 300 288 287 290 268 235 267 317 336 323 173 165 154 31 29 19 11 10 3 344 315 303 306 306 298 283 276 281 273 196 174 166 157 156 157 156 156 160 160 152 147 157 170 169 168 171 162 143 138 349 357 3 8 12 6 357 350 342 330 331 344 348 341 339 345 342 328 325 333 342 349 355 358 359 358
293 301 310 308 298 297 297 292 292 295 294 291 286 279 280 275 224 209 255 319 357 172 192 202 294 8 31 16 355 346 339 316 293 288 292 289 359 336 274 258 193 153 144 139 142 146 146 147 149 151 153 155 162 174 176 166 162 174 175 143 329 333 345 355 6 5 356 353 351 345 336 338 346 348 338 335 344 345 332 328 336 342 347 354 359 2 2
307 311 309 296 287 294 297 292 291 294 292 286 282 279 281 256 200 192 231 280 315 312 259 239 245 306 354 356 346 332 321 313 288 192 124 109 97 103 122 127 127 125 119 119 129 138 142 147 154 157 160 161 162 168 175 170 165 188 239 308 327 334 347 4 17 348 340 344 345 337 334 340 350 353 345 340 345 346 336 332 338 343 346 352 359 4 5
312 309 302 290 290 301 304 297 291 288 286 287 285 278 274 264 242 223 222 234 269 330 307 222 207 267 315 325 338 342 12 38 59 85 92 90 95 114 121 122 125 126 119 117 126 135 137 141 148 149 147 147 153 169 191 191 176 225 294 294 295 319 331 338 337 331 331 335 339 338 338 342 350 355 351 346 347 347 339 335 342 347 347 351 359 4 6
307 305 302 297 297 304 306 300 297 294 290 287 281 267 257 266 271 263 209 211 248 330 311 191 193 266 302 304 335 54 71 63 64 75 83 90 107 126 128 129 133 131 121 117 123 127 122 120 128 129 120 119 145 174 180 174 190 245 276 270 277 292 301 311 326 332 330 331 343 351 349 342 343 350 351 350 353 351 340 338 345 349 350 353 359 4 5
307 312 318 316 314 320 319 310 302 296 289 283 279 276 275 282 286 275 194 201 240 265 195 187 203 258 272 263 39 95 89 78 74 77 82 89 105 121 130 133 130 121 110 106 112 118 116 112 125 139 141 147 170 186 175 173 191 216 244 272 289 298 307 317 325 330 331 335 344 353 350 346 351 358 357 357 360 353 340 340 347 350 352 356 360 3 6
315 327 357 2 2 5 3 351 327 307 301 303 309 311 308 299 285 256 201 223 243 225 198 192 205 217 182 153 126 102 91 84 79 79 82 86 92 99 107 113 112 108 104 100 102 109 108 97 92 99 131 166 189 220 232 225 228 239 260 287 305 315 323 330 330 327 333 338 336 337 347 354 360 4 7 10 8 357 344 344 349 351 354 359 1 4 7
15 10 19 14 10 11 9 359 344 332 327 326 320 311 308 303 282 256 249 237 210 187 178 177 181 171 145 130 114 97 89 85 82 79 79 81 82 84 88 91 91 91 88 84 83 89 92 87 76 65 58 73 112 234 248 251 262 269 279 305 326 327 326 333 335 327 327 327 321 330 348 357 351 1 20 22 8 2 355 349 350 354 357 1 4 6 8
58 44 34 25 17 11 1 349 344 344 341 331 321 321 348 48 132 176 164 149 140 135 136 139 137 127 117 111 104 94 86 84 82 79 78 77 77 78 80 82 82 81 78 74 70 68 68 70 69 60 49 41 39 34 13 330 308 302 308 335 346 334 326 332 336 329 326 322 317 327 346 351 338 355 23 10 354 2 5 354 354 360 3 5 8 10 10
62 50 39 32 25 17 7 360 357 353 346 340 339 39 93 100 105 113 120 123 121 118 118 128 131 126 114 102 96 91 87 85 84 82 81 79 77 77 77 76 75 75 75 74 72 68 64 61 59 55 48 42 43 46 43 36 37 36 22 11 2 350 344 347 343 329 322 318 318 332 4 12 357 3 13 351 346 3 10 359 360 8 11 12 15 15 14
55 50 42 32 28 24 18 13 14 21 32 47 72 95 101 101 102 107 112 112 110 112 116 117 118 117 109 98 93 90 88 87 85 84 82 79 76 75 74 72 70 69 70 72 73 73 72 66 61 58 52 43 40 45 49 46 47 46 36 29 22 11 3 360 354 343 336 333 337 2 23 19 10 14 16 3 358 10 14 6 5 10 12 15 19 19 18
53 51 46 36 32 36 38 43 58 69 71 75 85 94 99 101 102 103 104 105 110 120 121 115 111 107 102 96 91 89 88 86 83 82 81 79 77 74 70 67 66 64 61 59 60 69 77 77 73 71 65 54 48 51 54 52 50 47 40 34 30 25 19 12 6 3 7 14 21 26 29 26 23 23 19 12 9 13 17 18 15 12 11 13 18 19 19
57 54 53 50 53 64 74 83 90 92 91 90 91 94 97 100 101 99 100 102 104 105 105 105 104 103 101 98 94 90 87 85 82 80 77 75 76 75 70 65 63 59 53 50 50 54 58 64 72 74 72 67 61 60 60 60 57 52 45 40 36 31 28 24 17 12 15 20 21 22 28 35 33 26 19 16 15 13 18 25 22 15 13 16 20 21 21
61 58 63 70 78 84 87 89 90 90 92 94 95 95 98 100 101 100 101 104 108 110 107 105 105 105 102 99 96 93 90 86 82 78 74 73 76 77 74 69 65 60 54 51 51 51 50 54 67 72 69 66 63 61 61 62 59 52 46 43 40 34 32 31 28 25 23 23 22 21 25 32 30 22 18 21 22 20 22 26 23 18 19 23 22 21 21
67 65 70 78 84 85 85 84 83 83 85 89 92 94 97 99 99 96 91 88 95 106 107 101 98 97 95 92 91 91 90 88 83 77 74 75 77 78 75 69 63 58 54 50 47 46 48 53 61 66 66 65 63 57 54 54 52 47 44 44 40 35 34 35 35 36 35 29 22 17 20 30 32 25 22 27 28 25 26 28 25 23 25 27 25 23 22
77 73 73 78 84 85 83 82 82 83 83 83 84 87 92 96 96 92 85 81 84 90 91 88 86 86 87 87 87 89 93 96 95 89 83 79 76 73 69 64 56 49 46 44 41 39 40 43 49 54 57 60 60 56 49 45 42 39 39 41 39 36 36 35 35 41 47 40 23 7 1 15 18 12 15 25 28 23 21 22 22 24 28 30 29 27 26
84 79 73 74 80 86 88 86 85 86 85 84 82 84 87 90 93 93 90 88 87 86 85 83 82 81 81 81 81 81 84 87 88 85 81 78 73 66 61 56 48 40 37 35 32 31 33 34 38 41 42 43 50 53 48 43 39 38 37 39 41 42 43 41 36 36 42 43 29 14 2 3 4 1 4 13 14 8 6 4 6 16 28 34 35 35 33
88 85 79 75 77 81 86 88 88 91 92 90 87 86 86 89 94 98 99 98 94 88 84 82 80 78 77 76 74 73 72 69 66 63 63 64 63 57 49 43 36 29 25 23 22 21 23 25 29 32 32 29 30 37 40 40 40 40 40 40 42 42 43 44 42 38 37 37 33 24 14 4 356 352 352 350 346 347 352 355 354 1 14 28 39 45 45
89 87 84 80 77 76 78 81 83 88 92 95 95 95 93 92 94 97 97 97 95 91 87 83 77 71 69 67 66 66 66 62 58 57 53 51 51 45 35 28 21 15 11 11 12 12 13 15 20 24 22 15 12 16 25 29 31 33 37 41 42 39 36 37 39 37 35 34 34 31 25 18 10 2 353 346 341 340 344 348 349 349 353 3 19 38 49
90 87 86 85 82 78 77 77 76 77 80 84 87 90 91 92 98 101 97 91 86 84 84 85 82 77 71 64 60 61 60 57 55 53 41 29 30 33 26 17 9 3 0 0 1 1 3 6 11 14 12 6 1 6 14 20 22 25 29 34 37 37 34 33 34 35 34 33 32 30 27 23 20 17 10 3 359 355 352 348 345 342 342 347 357 14 35
93 91 89 87 85 83 84 82 79 77 77 77 75 74 74 76 85 95 98 94 85 78 73 71 72 74 74 69 67 67 63 58 55 48 31 14 4 3 9 10 3 354 349 349 351 353 356 357 358 360 2 358 353 355 4 11 13 17 22 25 29 32 33 31 29 30 30 30 28 26 23 20 18 17 16 13 11 9 6 3 357 349 344 343 345 351 8
94 92 91 90 88 87 86 85 83 82 80 78 78 77 73 69 69 71 71 68 66 64 59 53 53 57 60 63 69 76 73 64 55 43 33 21 358 340 342 353 358 351 344 341 342 346 350 349 347 347 350 352 349 348 352 357 0 5 12 17 20 23 27 27 26 25 26 25 23 21 18 16 15 14 13 12 11 10 11 10 8 5 1 356 349 348 354
92 90 89 89 90 89 86 82 79 78 77 78 83 84 82 77 73 69 66 64 62 60 58 56 52 48 44 42 41 40 48 58 51 31 12 355 336 329 332 339 348 352 347 339 335 336 339 342 340 339 340 343 345 344 344 347 352 357 3 11 15 16 17 19 19 17 16 17 17 16 15 13 13 13 12 11 10 10 11 10 11 13 13 9 4 1 360
92 89 87 86 85 84 82 79 76 71 68 71 75 76 77 77 73 66 63 63 64 65 66 64 56 47 42 41 40 31 15 10 25 28 1 332 329 336 339 337 339 346 351 343 331 327 327 331 334 333 332 334 337 336 337 340 342 343 350 3 12 15 15 16 16 14 11 10 12 15 16 15 14 14 13 12 11 12 13 13 14 17 18 17 15 14 11
91 88 85 81 76 74 73 72 69 64 61 61 62 62 64 66 62 58 57 56 53 54 59 62 59 54 44 35 37 38 24 4 0 7 3 347 345 349 348 339 334 338 345 350 338 323 318 320 325 326 326 327 330 330 331 332 329 329 335 344 355 8 13 11 9 8 9 8 10 13 15 18 19 19 17 15 16 18 21 23 23 23 24 26 27 26 23
89 88 87 82 77 74 73 71 70 67 62 57 54 52 55 61 65 67 67 62 54 47 41 35 37 47 43 29 23 25 18 5 359 356 353 351 354 353 347 337 331 334 343 352 345 324 313 312 316 320 324 327 327 326 327 327 326 327 331 331 335 350 4 3 360 2 5 8 12 14 15 17 23 25 24 23 24 24 27 30 30 29 30 31 31 32 30
93 94 93 89 85 82 78 75 75 71 62 56 51 45 45 53 58 57 56 55 48 38 29 21 11 355 341 350 7 8 357 356 358 350 335 330 336 345 342 335 334 339 349 352 337 319 313 313 317 322 327 327 325 324 327 327 326 329 333 334 336 348 3 4 2 6 11 14 18 20 19 18 22 26 28 31 33 33 35 37 36 34 35 37 35 32 31